Total_Precipitation_Accumulation
0.17 0.14 0.14 0.17 0.20 0.25 0.31 0.37 0.54 0.70 0.86 0.98 1.13 1.38 1.54 1.64 1.63 1.63 1.70 1.62 1.44 1.52 1.63 1.60 1.81 1.89 1.86 1.85 1.80 1.91 1.93 1.66 1.48 1.72 1.68 1.27 1.00 0.89 0.90 0.94 0.96 0.97 0.95
0.09 0.08 0.07 0.10 0.12 0.16 0.22 0.30 0.44 0.67 0.92 1.15 1.33 1.52 1.84 2.00 2.00 2.06 2.01 1.96 1.85 1.87 1.79 1.87 2.08 2.13 2.23 2.32 2.16 2.27 2.33 2.02 1.73 2.08 2.47 1.97 1.56 1.01 0.81 0.90 0.98 1.05 1.05
0.07 0.06 0.05 0.06 0.07 0.09 0.14 0.21 0.34 0.57 0.88 1.19 1.45 1.64 1.88 2.14 2.24 2.15 2.10 2.13 2.21 2.26 2.15 2.11 2.23 2.24 2.32 2.51 2.54 2.48 2.55 2.46 2.15 2.11 2.50 2.35 2.02 1.59 1.02 0.90 0.98 1.09 1.13
0.11 0.09 0.07 0.06 0.07 0.10 0.13 0.17 0.32 0.48 0.72 0.99 1.32 1.57 1.84 2.15 2.22 2.20 2.17 2.21 2.33 2.42 2.38 2.33 2.39 2.39 2.35 2.47 2.55 2.53 2.72 2.87 2.58 2.33 2.10 2.01 2.01 1.98 1.53 1.11 1.04 1.16 1.21
0.15 0.13 0.11 0.11 0.13 0.15 0.18 0.25 0.38 0.54 0.74 0.98 1.30 1.63 1.82 1.99 2.19 2.20 2.11 2.05 2.12 2.14 2.12 2.24 2.39 2.41 2.38 2.39 2.57 2.68 2.85 2.83 2.73 2.57 2.43 2.24 2.05 1.71 1.76 1.62 1.34 1.29 1.19
0.15 0.17 0.21 0.23 0.23 0.25 0.30 0.38 0.51 0.72 0.87 0.97 1.12 1.29 1.50 1.78 1.92 2.02 2.06 2.07 2.07 1.95 1.87 1.98 2.08 2.18 2.23 2.21 2.26 2.42 2.55 2.72 2.85 2.77 2.58 2.46 2.32 2.12 1.99 1.71 1.53 1.57 1.41
0.26 0.33 0.43 0.41 0.38 0.41 0.50 0.56 0.63 0.74 0.79 0.78 0.87 1.00 1.16 1.38 1.52 1.61 1.81 1.88 1.92 1.86 1.81 1.79 1.87 1.94 1.99 2.09 2.25 2.24 2.27 2.44 2.63 2.62 2.54 2.52 2.30 2.18 2.21 2.05 1.71 1.61 1.48
0.40 0.54 0.66 0.71 0.65 0.63 0.65 0.62 0.63 0.60 0.62 0.66 0.73 0.80 0.87 1.01 1.13 1.21 1.37 1.50 1.50 1.47 1.46 1.52 1.62 1.78 1.88 1.98 2.11 2.16 2.12 2.19 2.25 2.26 2.35 2.42 2.31 2.10 2.04 2.08 2.14 1.88 1.62
0.57 0.73 0.86 0.93 0.88 0.80 0.73 0.69 0.68 0.65 0.58 0.61 0.69 0.75 0.80 0.82 0.85 0.89 0.88 0.97 1.06 1.09 1.14 1.20 1.33 1.54 1.68 1.75 1.86 2.00 1.99 2.04 2.04 2.10 2.16 2.16 2.20 2.04 1.89 1.86 1.94 2.04 1.82
0.80 0.91 0.99 0.98 0.97 1.01 0.95 0.78 0.71 0.72 0.66 0.74 0.75 0.72 0.71 0.69 0.67 0.71 0.77 0.78 0.87 0.98 1.07 1.09 1.16 1.29 1.39 1.49 1.67 1.82 1.89 1.92 1.89 1.87 1.94 1.98 2.03 2.04 2.01 1.96 1.94 1.90 1.85
1.00 1.02 1.08 1.02 0.89 0.89 0.87 0.85 0.80 0.74 0.75 0.80 0.80 0.70 0.67 0.67 0.67 0.65 0.67 0.76 0.85 0.95 1.00 1.06 1.11 1.14 1.24 1.29 1.41 1.56 1.69 1.72 1.73 1.63 1.67 1.78 1.84 2.01 2.04 2.00 1.95 1.93 1.85
0.95 0.98 1.05 0.97 0.81 0.77 0.68 0.72 0.79 0.80 0.86 0.86 0.80 0.71 0.71 0.74 0.79 0.77 0.70 0.71 0.77 0.79 0.90 1.04 1.03 1.04 1.10 1.18 1.29 1.38 1.44 1.53 1.49 1.41 1.43 1.54 1.62 1.76 1.89 1.98 1.89 1.89 1.84
0.73 0.72 0.74 0.80 0.76 0.72 0.65 0.70 0.76 0.81 0.85 0.86 0.84 0.76 0.66 0.69 0.75 0.75 0.68 0.65 0.70 0.74 0.88 1.02 1.14 1.07 0.97 1.06 1.15 1.21 1.24 1.25 1.20 1.19 1.21 1.26 1.35 1.48 1.60 1.71 1.81 1.81 1.75
0.52 0.50 0.46 0.52 0.55 0.57 0.62 0.66 0.77 0.89 0.93 0.91 0.85 0.82 0.76 0.78 0.73 0.64 0.61 0.63 0.63 0.61 0.68 0.83 0.94 0.99 0.95 0.90 0.91 0.97 1.12 1.12 1.04 0.95 0.94 0.96 0.99 1.11 1.26 1.38 1.53 1.68 1.80
0.37 0.35 0.32 0.32 0.34 0.37 0.45 0.52 0.66 0.81 0.93 0.97 0.92 0.85 0.80 0.70 0.63 0.57 0.51 0.52 0.48 0.48 0.54 0.70 0.88 0.94 0.94 0.98 0.97 0.90 0.93 0.99 1.01 0.93 0.84 0.78 0.77 0.86 0.95 1.07 1.32 1.52 1.68
0.27 0.24 0.24 0.21 0.23 0.30 0.36 0.37 0.48 0.63 0.74 0.79 0.80 0.81 0.77 0.62 0.54 0.48 0.41 0.40 0.41 0.42 0.45 0.53 0.69 0.85 0.84 0.99 1.04 0.98 0.90 0.90 0.90 0.90 0.90 0.89 0.83 0.72 0.67 0.73 0.89 1.13 1.35
0.23 0.21 0.20 0.21 0.23 0.30 0.32 0.33 0.42 0.53 0.57 0.61 0.64 0.66 0.61 0.49 0.43 0.35 0.31 0.34 0.36 0.38 0.41 0.47 0.59 0.74 0.89 0.92 0.83 0.92 0.93 0.89 0.90 0.87 0.87 0.90 0.89 0.93 0.83 0.76 0.73 0.77 0.94
0.16 0.21 0.18 0.17 0.19 0.24 0.29 0.37 0.40 0.41 0.42 0.46 0.49 0.47 0.47 0.43 0.35 0.28 0.28 0.30 0.34 0.37 0.39 0.43 0.49 0.57 0.76 0.81 0.72 0.90 0.94 0.95 0.94 0.92 0.94 0.98 1.01 0.98 1.08 1.05 0.96 0.89 0.88
0.07 0.10 0.09 0.09 0.10 0.10 0.11 0.14 0.17 0.20 0.23 0.31 0.37 0.40 0.40 0.37 0.31 0.27 0.33 0.40 0.40 0.39 0.38 0.39 0.41 0.44 0.53 0.62 0.60 0.74 0.88 0.98 0.97 0.88 0.89 0.94 0.98 1.17 1.20 1.12 1.10 1.03 0.97
0.02 0.03 0.03 0.03 0.03 0.03 0.03 0.03 0.05 0.09 0.13 0.20 0.24 0.28 0.31 0.34 0.38 0.46 0.54 0.56 0.52 0.46 0.41 0.39 0.38 0.40 0.43 0.56 0.45 0.57 0.74 0.91 1.00 0.94 0.90 1.05 1.02 1.03 0.99 0.95 1.14 1.12 1.02
0.01 0.01 0.01 0.01 0.01 0.00 0.00 0.01 0.02 0.02 0.02 0.04 0.10 0.18 0.29 0.35 0.44 0.56 0.59 0.58 0.52 0.44 0.40 0.38 0.36 0.36 0.45 0.60 0.54 0.61 0.70 0.83 0.91 0.94 0.96 0.94 1.02 0.85 0.80 0.85 1.00 1.14 1.07
0.01 0.00 0.00 0.00 0.00 0.00 0.00 0.00 0.00 0.00 0.01 0.03 0.07 0.13 0.20 0.29 0.42 0.51 0.51 0.50 0.49 0.46 0.42 0.43 0.40 0.42 0.53 0.60 0.61 0.61 0.65 0.73 0.80 0.83 0.76 0.75 0.82 0.68 0.63 0.61 0.75 0.92 0.93
0.01 0.00 0.00 0.00 0.00 0.00 0.00 0.00 0.00 0.00 0.00 0.01 0.02 0.06 0.11 0.22 0.36 0.39 0.39 0.43 0.45 0.44 0.43 0.42 0.40 0.39 0.47 0.57 0.67 0.57 0.50 0.48 0.56 0.63 0.63 0.55 0.52 0.52 0.48 0.51 0.61 0.67 0.80
0.01 0.00 0.00 0.00 0.00 0.00 0.00 0.00 0.00 0.00 0.00 0.00 0.00 0.01 0.02 0.05 0.10 0.15 0.20 0.26 0.32 0.33 0.32 0.35 0.39 0.42 0.42 0.43 0.48 0.51 0.47 0.41 0.41 0.41 0.35 0.34 0.37 0.43 0.46 0.46 0.48 0.54 0.75
0.01 0.00 0.00 0.00 0.00 0.00 0.00 0.00 0.00 0.00 0.00 0.00 0.00 0.01 0.02 0.03 0.04 0.06 0.09 0.13 0.16 0.19 0.25 0.31 0.34 0.35 0.39 0.39 0.42 0.43 0.43 0.48 0.52 0.53 0.46 0.39 0.38 0.39 0.43 0.46 0.51 0.63 0.73
0.01 0.01 0.00 0.00 0.00 0.00 0.00 0.00 0.00 0.00 0.00 0.00 0.00 0.00 0.01 0.01 0.01 0.02 0.03 0.04 0.06 0.09 0.12 0.15 0.18 0.19 0.25 0.32 0.35 0.37 0.39 0.41 0.48 0.52 0.54 0.53 0.54 0.54 0.53 0.51 0.48 0.49 0.57